FW9422 Weather Reports


time (UTC)temp
F
wind
direction
speed
knots
gust
knots
rain 1hr
in
rain 24hr
in
rain mn
in
humidity
%
barometer
mb
20260505234058 63 0 0.0 4.3 0.00 0.00 0.00 67 1015.5
20260505233558 64 0 0.9 4.3 0.00 0.00 0.00 66 1015.6
20260505233058 64 304 0.9 3.5 0.00 0.00 0.00 66 1015.6
20260505232558 64 281 0.0 1.7 0.00 0.00 0.00 65 1015.6
20260505232058 64 0 0.0 0.9 0.00 0.00 0.00 65 1015.6
20260505231600 64 0 0.0 0.9 0.00 0.00 0.00 65 1015.7
20260505231057 64 0 0.0 2.6 0.00 0.00 0.00 66 1015.7
20260505230558 64 86 0.0 2.6 0.00 0.00 0.00 66 1015.6
20260505225600 63 5 0.0 2.6 0.00 0.00 0.00 66 1015.6
20260505225058 63 0 0.0 1.7 0.00 0.00 0.00 67 1015.7
20260505224557 63 0 0.0 2.6 0.00 0.00 0.00 67 1015.7
20260505224102 63 5 0.0 3.5 0.00 0.00 0.00 67 1015.7
20260505223557 63 328 0.9 4.3 0.00 0.00 0.00 68 1015.7
20260505223101 63 0 0.9 4.3 0.00 0.00 0.00 67 1015.7
20260505222558 63 0 0.0 3.5 0.00 0.00 0.00 67 1015.8
20260505222058 63 323 0.9 3.5 0.00 0.00 0.00 68 1015.9
20260505221602 62 0 0.0 3.5 0.00 0.00 0.00 68 1015.9
20260505221057 62 5 0.0 3.5 0.00 0.00 0.00 68 1016.0
20260505220558 62 0 0.9 4.3 0.00 0.00 0.00 68 1016.0
20260505220108 62 345 0.9 4.3 0.00 0.00 0.00 68 1016.0
20260505215557 62 0 1.7 4.3 0.00 0.00 0.00 68 1016.1
20260505215057 62 348 0.0 4.3 0.00 0.00 0.00 69 1016.1
20260505214610 62 0 0.9 4.3 0.00 0.00 0.00 68 1016.0
20260505214057 62 0 0.9 3.5 0.00 0.00 0.00 68 1016.1
20260505213600 62 331 0.9 3.5 0.00 0.00 0.00 68 1016.1
20260505213101 62 329 0.9 3.5 0.00 0.00 0.00 68 1016.2
20260505212557 62 333 0.9 6.1 0.00 0.00 0.00 68 1016.3
20260505212104 62 327 1.7 6.1 0.00 0.00 0.00 68 1016.2
20260505211646 63 360 0.9 5.2 0.00 0.00 0.00 68 1016.2
20260505211101 63 9 0.9 7.0 0.00 0.00 0.00 67 1016.2
20260505210556 63 306 2.6 7.0 0.00 0.00 0.00 66 1016.3
20260505210059 64 9 0.9 7.0 0.00 0.00 0.00 65 1016.2
20260505205558 64 0 0.9 4.3 0.00 0.00 0.00 65 1016.1
20260505205058 64 0 0.0 3.5 0.00 0.00 0.00 65 1016.1
20260505204613 64 245 0.0 3.5 0.00 0.00 0.00 67 1016.2
20260505204057 63 0 0.0 3.5 0.00 0.00 0.00 67 1016.1
20260505203557 63 264 0.0 3.5 0.00 0.00 0.00 68 1016.1
20260505203058 63 225 0.0 3.5 0.00 0.00 0.00 69 1016.1
20260505202556 63 177 0.9 3.5 0.00 0.00 0.00 69 1016.1
20260505202056 63 260 0.9 3.5 0.00 0.00 0.00 69 1016.1
20260505201558 63 300 0.0 1.7 0.00 0.00 0.00 69 1016.2
20260505201057 62 0 0.0 2.6 0.00 0.00 0.00 69 1016.2
20260505200558 62 0 0.0 2.6 0.00 0.00 0.00 69 1016.3
20260505200056 62 0 0.9 2.6 0.00 0.00 0.00 69 1016.4
20260505195558 62 0 0.9 2.6 0.00 0.00 0.00 69 1016.4
20260505195057 62 0 0.0 3.5 0.00 0.00 0.00 69 1016.4
20260505194557 62 0 0.9 3.5 0.00 0.00 0.00 69 1016.4
20260505194058 62 0 0.9 3.5 0.00 0.00 0.00 69 1016.4
20260505193557 62 288 0.0 2.6 0.00 0.00 0.00 69 1016.4
20260505193056 62 298 0.9 3.5 0.00 0.00 0.00 69 1016.5
20260505192600 62 283 0.9 3.5 0.00 0.00 0.00 69 1016.5
20260505192057 62 242 0.0 2.6 0.00 0.00 0.00 70 1016.4
20260505191604 61 0 0.0 4.3 0.00 0.00 0.00 70 1016.4
20260505191058 62 0 0.0 4.3 0.00 0.00 0.00 70 1016.4
20260505190601 61 0 0.9 4.3 0.00 0.00 0.00 71 1016.4
20260505190103 61 0 0.9 3.5 0.00 0.00 0.00 71 1016.2
20260505185557 61 0 0.0 2.6 0.00 0.00 0.00 72 1016.3
20260505185058 60 0 0.9 3.5 0.00 0.00 0.00 72 1016.2
20260505184556 60 296 0.9 3.5 0.00 0.00 0.00 72 1016.3
20260505184058 60 0 0.9 3.5 0.00 0.00 0.00 72 1016.3
20260505183557 60 0 0.0 3.5 0.00 0.00 0.00 73 1016.3
20260505183055 59 224 0.0 3.5 0.00 0.00 0.00 74 1016.4
20260505182557 59 0 0.0 0.9 0.00 0.00 0.00 74 1016.3
20260505182057 58 0 0.0 1.7 0.00 0.00 0.00 74 1016.3
20260505181640 58 0 0.0 1.7 0.00 0.00 0.00 74 1016.3
20260505181057 58 270 0.0 2.6 0.00 0.00 0.00 74 1016.4
20260505180557 58 0 0.0 3.5 0.00 0.00 0.00 74 1016.4
20260505180106 58 5 0.0 3.5 0.00 0.00 0.00 73 1016.3
20260505175554 58 0 0.9 3.5 0.00 0.00 0.00 73 1016.2
20260505175057 58 335 0.0 3.5 0.00 0.00 0.00 73 1016.2
20260505174558 58 360 0.0 3.5 0.00 0.00 0.00 72 1016.2
20260505174058 58 316 0.0 3.5 0.00 0.00 0.00 72 1016.1
20260505173558 58 0 0.9 3.5 0.00 0.00 0.00 72 1016.1
20260505173058 58 0 0.0 3.5 0.00 0.00 0.00 72 1016.0
20260505172558 58 0 0.0 0.9 0.00 0.00 0.00 72 1015.9
20260505172057 58 0 0.0 0.9 0.00 0.00 0.00 73 1015.8
20260505171603 58 0 0.0 1.7 0.00 0.00 0.00 73 1015.9
20260505171057 57 0 0.0 1.7 0.00 0.00 0.00 73 1015.8
20260505170557 57 0 0.0 1.7 0.00 0.00 0.00 73 1015.8
20260505170056 57 0 0.0 1.7 0.00 0.00 0.00 73 1015.8
20260505165557 57 0 0.0 1.7 0.00 0.00 0.00 73 1015.8
20260505165058 57 0 0.0 1.7 0.00 0.00 0.00 73 1015.8
20260505164559 57 0 0.0 0.9 0.00 0.00 0.00 74 1015.8
20260505164058 57 0 0.0 0.9 0.00 0.00 0.00 75 1015.7
20260505163601 57 0 0.0 1.7 0.00 0.00 0.00 75 1015.7
20260505163055 57 0 0.0 1.7 0.00 0.00 0.00 75 1015.7
20260505162557 56 0 0.0 1.7 0.00 0.00 0.00 76 1015.7
20260505162057 56 0 0.0 1.7 0.00 0.00 0.00 76 1015.7
20260505161556 56 0 0.0 1.7 0.00 0.00 0.00 77 1015.7
20260505161057 56 161 0.0 1.7 0.00 0.00 0.00 77 1015.6
20260505160557 56 0 0.0 1.7 0.00 0.00 0.00 78 1015.6
20260505153100 54 0 0.0 1.7 0.00 0.00 0.00 81 1015.4
20260505152556 54 0 0.0 1.7 0.00 0.00 0.00 81 1015.4
20260505152058 54 0 0.0 2.6 0.00 0.00 0.00 82 1015.5
20260505151602 54 162 0.0 2.6 0.00 0.00 0.00 82 1015.3
20260505151101 54 0 0.0 1.7 0.00 0.00 0.00 82 1015.2
20260505150557 54 0 0.0 1.7 0.00 0.00 0.00 83 1015.2
20260505140557 52 0 0.0 0.0 0.00 0.00 0.00 85 1014.9
20260505140108 52 0 0.0 0.0 0.00 0.00 0.00 85 1014.9
20260505124557 52 0 0.0 0.0 0.00 0.00 0.00 84 1014.7
20260505124058 53 0 0.0 0.0 0.00 0.00 0.00 84 1014.7
20260505123557 53 0 0.0 0.0 0.00 0.00 0.00 83 1014.9
20260505123100 53 0 0.0 0.0 0.00 0.00 0.00 83 1014.9
20260505122555 53 0 0.0 0.0 0.00 0.00 0.00 83 1014.8
20260505122059 53 0 0.0 0.0 0.00 0.00 0.00 83 1014.8
20260505121557 53 0 0.0 0.0 0.00 0.00 0.00 83 1014.9
20260505121058 53 0 0.0 0.0 0.00 0.00 0.00 82 1014.8
20260505120557 53 0 0.0 0.0 0.00 0.00 0.00 82 1014.9
20260505120126 53 0 0.0 0.0 0.00 0.00 0.00 82 1014.8
20260505115558 53 0 0.0 0.0 0.00 0.00 0.00 82 1014.8
20260505115058 53 0 0.0 0.0 0.00 0.00 0.00 82 1014.9
20260505114558 53 0 0.0 0.0 0.00 0.00 0.00 81 1014.8
20260505114058 53 0 0.0 0.0 0.00 0.00 0.00 81 1014.9
20260505113600 53 0 0.0 0.0 0.00 0.00 0.00 81 1015.0
20260505113058 53 0 0.0 0.0 0.00 0.00 0.00 81 1014.9
20260505112557 53 0 0.0 0.0 0.00 0.00 0.00 80 1014.9
20260505112057 53 0 0.0 0.0 0.00 0.00 0.00 80 1014.9
20260505111557 53 0 0.0 0.9 0.00 0.00 0.00 80 1014.9
20260505111058 53 0 0.0 0.9 0.00 0.00 0.00 79 1014.8
20260505110558 53 0 0.0 0.9 0.00 0.00 0.00 79 1014.9
20260505110113 53 0 0.0 0.0 0.00 0.00 0.00 78 1014.8
20260505102057 53 0 0.0 1.7 0.00 0.00 0.00 77 1014.7
20260505101603 53 279 0.0 1.7 0.00 0.00 0.00 77 1014.9
20260505101058 53 0 0.0 0.9 0.00 0.00 0.00 77 1014.9
20260505100558 53 0 0.0 0.9 0.00 0.00 0.00 77 1015.0
20260505100100 54 0 0.0 1.7 0.00 0.00 0.00 76 1015.0
20260505095558 54 0 0.0 1.7 0.00 0.00 0.00 76 1015.1
20260505095100 54 288 0.0 0.9 0.00 0.00 0.00 76 1015.0
20260505094557 54 0 0.0 0.9 0.00 0.00 0.00 75 1015.0
20260505094058 54 0 0.0 0.9 0.00 0.00 0.00 75 1015.1
20260505093558 54 0 0.0 0.9 0.00 0.00 0.00 75 1015.1
20260505093055 54 0 0.0 2.6 0.00 0.00 0.00 74 1015.2
20260505092558 54 0 0.0 2.6 0.00 0.00 0.00 74 1015.2
20260505092058 54 0 0.0 3.5 0.00 0.00 0.00 73 1015.1
20260505091559 54 0 0.0 3.5 0.00 0.00 0.00 73 1015.1
20260505091057 54 0 0.0 3.5 0.00 0.00 0.00 73 1015.1
20260505090557 54 0 0.0 3.5 0.00 0.00 0.00 72 1015.2
20260505090100 54 0 0.9 3.5 0.00 0.00 0.00 72 1015.3
20260505085558 54 187 0.0 3.5 0.00 0.00 0.00 72 1015.3
20260505085057 54 0 0.0 5.2 0.00 0.00 0.00 72 1015.3
20260505084603 54 254 0.0 5.2 0.00 0.00 0.00 72 1015.4
20260505084057 54 0 0.0 2.6 0.00 0.00 0.00 72 1015.5
20260505083557 54 0 0.0 3.5 0.00 0.00 0.00 72 1015.5
20260505083109 54 263 0.9 3.5 0.00 0.00 0.00 71 1015.7
20260505082605 54 275 0.0 7.0 0.00 0.00 0.00 71 1015.7
20260505082058 54 323 0.0 7.0 0.00 0.00 0.00 71 1015.7
20260505081601 54 274 1.7 7.0 0.00 0.00 0.00 71 1015.5
20260505081058 55 309 2.6 6.1 0.00 0.00 0.00 71 1015.6
20260505080557 55 236 0.9 7.0 0.00 0.00 0.00 71 1015.6
20260505080105 55 0 1.7 7.0 0.00 0.00 0.00 72 1015.6
20260505075557 55 298 0.0 6.1 0.00 0.00 0.00 72 1015.6
20260505075100 55 325 2.6 8.7 0.00 0.00 0.00 72 1015.7
20260505074555 55 241 1.7 8.7 0.00 0.00 0.00 72 1015.6
20260505074057 55 277 1.7 8.7 0.00 0.00 0.00 72 1015.6
20260505073559 55 263 1.7 7.0 0.00 0.00 0.00 73 1015.7
20260505073102 55 294 1.7 7.0 0.00 0.00 0.00 74 1015.7
20260505072557 55 293 2.6 7.0 0.00 0.00 0.00 74 1015.6
20260505072058 55 328 0.9 6.1 0.00 0.00 0.00 75 1015.6
20260505071557 55 0 0.0 3.5 0.00 0.00 0.00 75 1015.6
20260505071058 55 0 0.9 3.5 0.00 0.00 0.00 75 1015.5
20260505070558 55 0 0.9 3.5 0.00 0.00 0.00 76 1015.4
20260505070107 55 242 0.0 3.5 0.00 0.00 0.00 76 1015.4
20260505065558 55 301 0.9 3.5 0.00 0.00 0.00 77 1015.4
20260505065058 55 302 0.0 3.5 0.00 0.00 0.00 78 1015.4
20260505064639 55 292 0.0 3.5 0.00 0.00 0.00 79 1015.4
20260505064054 55 0 0.0 2.6 0.00 0.00 0.00 79 1015.4
20260505063554 55 0 0.0 2.6 0.00 0.00 0.00 79 1015.5
20260505063104 55 0 0.0 2.6 0.00 0.00 0.00 79 1015.4
20260505062555 55 0 0.0 2.6 0.00 0.00 0.00 79 1015.5
20260505062057 55 0 0.0 2.6 0.00 0.00 0.00 79 1015.4
20260505061606 56 0 0.0 3.5 0.00 0.00 0.00 79 1015.2
20260505061058 56 0 0.0 5.2 0.00 0.00 0.00 79 1015.3
20260505060606 56 285 1.7 5.2 0.00 0.00 0.00 79 1015.3
20260505060101 56 283 0.0 4.3 0.00 0.00 0.00 79 1015.2
20260505055558 56 264 0.0 6.1 0.00 0.00 0.00 78 1015.3
20260505055101 56 265 0.9 6.1 0.00 0.00 0.00 78 1015.4
20260505054556 56 280 0.0 3.5 0.00 0.00 0.00 78 1015.4
20260505054058 56 0 0.0 6.1 0.00 0.00 0.00 78 1015.4
20260505053557 56 0 0.9 6.1 0.00 0.00 0.00 78 1015.5
20260505053114 56 243 0.9 4.3 0.00 0.00 0.00 77 1015.4
20260505052557 56 0 0.9 4.3 0.00 0.00 0.00 77 1015.6
20260505052058 56 250 0.0 5.2 0.00 0.00 0.00 77 1015.8
20260505051601 56 323 1.7 5.2 0.00 0.00 0.00 77 1015.7
20260505051058 56 334 0.0 5.2 0.00 0.00 0.00 76 1015.8
20260505050558 57 316 0.9 5.2 0.00 0.00 0.00 76 1015.9
20260505050111 56 247 0.0 6.1 0.00 0.00 0.00 76 1015.8
20260505041608 57 340 0.0 6.1 0.00 0.00 0.00 74 1015.1
20260505041057 57 295 0.0 7.0 0.00 0.00 0.00 73 1015.1
20260505040558 58 309 0.9 7.0 0.00 0.00 0.00 73 1015.1
20260505040106 58 287 1.7 7.0 0.00 0.00 0.00 72 1014.9
20260505035559 58 325 1.7 6.1 0.00 0.00 0.00 71 1014.9
20260505035058 58 278 1.7 6.1 0.00 0.00 0.00 71 1014.9
20260505034610 58 320 0.0 6.1 0.00 0.00 0.00 70 1014.9
20260505034058 58 256 0.9 6.1 0.00 0.00 0.00 69 1014.8
20260505033558 59 306 0.9 7.0 0.00 0.00 0.00 69 1014.7
20260505033057 59 304 1.7 7.0 0.00 0.00 0.00 68 1014.5
20260505032558 59 0 0.9 6.1 0.00 0.00 0.00 68 1014.4
20260505032057 59 0 1.7 6.1 0.00 0.00 0.00 68 1014.4
20260505031557 59 0 0.9 7.0 0.00 0.00 0.00 67 1014.4
20260505031058 59 312 0.9 7.0 0.00 0.00 0.00 67 1014.4
20260505030556 59 296 0.9 5.2 0.00 0.00 0.00 67 1014.4
20260505030114 60 300 0.9 6.1 0.00 0.00 0.00 66 1014.4
20260505025558 60 331 1.7 6.1 0.00 0.00 0.00 65 1014.4
20260505025058 60 252 0.9 7.0 0.00 0.00 0.00 65 1014.5
20260505024611 60 0 1.7 7.0 0.00 0.00 0.00 65 1014.5
20260505024058 60 295 2.6 7.0 0.00 0.00 0.00 65 1014.5
20260505023558 60 278 0.9 7.0 0.00 0.00 0.00 64 1014.4
20260505023058 60 278 1.7 7.0 0.00 0.00 0.00 63 1014.5
20260505022601 60 332 0.9 5.2 0.00 0.00 0.00 62 1014.5
20260505022058 60 0 0.0 6.1 0.00 0.00 0.00 61 1014.3
20260505021557 61 310 1.7 6.1 0.00 0.00 0.00 60 1014.3
20260505021057 61 230 1.7 6.1 0.00 0.00 0.00 60 1014.5
20260505020557 61 243 0.9 7.0 0.00 0.00 0.00 60 1014.4
20260505020107 61 0 1.7 7.8 0.00 0.00 0.00 59 1014.3
20260505015557 61 311 2.6 8.7 0.00 0.00 0.00 58 1014.4
20260505015100 61 307 2.6 8.7 0.00 0.00 0.00 59 1014.3
20260505014558 61 329 3.5 8.7 0.00 0.00 0.00 59 1014.3
20260505014058 62 257 3.5 8.7 0.00 0.00 0.00 59 1014.4
20260505013558 62 269 2.6 7.0 0.00 0.00 0.00 59 1014.4
20260505013110 62 336 2.6 7.0 0.00 0.00 0.00 59 1014.3
20260505012600 62 322 2.6 8.7 0.00 0.00 0.00 59 1014.4
20260505012058 62 343 0.9 8.7 0.00 0.00 0.00 59 1014.5
20260505011602 63 331 2.6 8.7 0.00 0.00 0.00 60 1014.6
20260505011058 63 336 2.6 9.6 0.00 0.00 0.00 61 1014.6
20260505010557 63 0 0.9 9.6 0.00 0.00 0.00 61 1014.5
20260505010111 63 346 2.6 9.6 0.00 0.00 0.00 61 1014.5
20260505005559 63 346 3.5 7.8 0.00 0.00 0.00 61 1014.7
20260505005059 63 340 1.7 7.8 0.00 0.00 0.00 61 1014.7
20260505004624 63 320 2.6 9.6 0.00 0.00 0.00 61 1014.7
20260505004057 63 0 2.6 9.6 0.00 0.00 0.00 61 1014.7
20260505003600 63 352 1.7 7.0 0.00 0.00 0.00 62 1014.7
20260505003100 63 265 2.6 7.0 0.00 0.00 0.00 63 1014.7
20260505002600 63 292 1.7 8.7 0.00 0.00 0.00 64 1014.8
20260505002058 62 0 2.6 8.7 0.00 0.00 0.00 65 1014.8
20260505001557 62 295 2.6 6.1 0.00 0.00 0.00 65 1014.9
20260505001058 62 321 1.7 5.2 0.00 0.00 0.00 65 1014.7
20260505000559 62 238 1.7 5.2 0.00 0.00 0.00 65 1014.7
20260505000112 62 318 1.7 6.1 0.00 0.00 0.00 65 1014.6
20260504235558 62 0 0.9 6.1 0.00 0.00 0.00 65 1014.7
20260504235058 62 275 1.7 6.1 0.00 0.00 0.00 64 1014.7
20260504234556 62 317 0.9 7.0 0.00 0.00 0.00 64 1014.7